Details for Ryanair at LEZL




Go Back


Latest METAR
Local Time

LEZL 240730Z 21005KT 170V250 CAVOK 19/15 Q1013 NOSIG

24/05/2018, 09:55:33

Description
Results
Ryanair Logo
Number of Pilots based at LEZL
0 Pilots Based here
Number of Ryanair Flights Departed from LEZL
1 Flights Departed
Number of Ryanair Flights Arrived at LEZL
2 Flights Arrived
Number of Ryanair Schedules Departing from LEZL
72 Schedules
Number of Ryanair Schedules Arriving at LEZL
73 Schedules
Number of Ryanair Schedules Departing from LEZL availible today
17 Schedules Today
Number of Ryanair Schedules Arriving at LEZL availible today
17 Schedules Today
Average Landing Rate at LEZL
-156 fpm
Ryanair Average Landing Rate at LEZL
-137 fpm
Total Fuel Purchased at LEZL by Ryanair
18,028.00 kgs / 39,744.53 lbs

Pilots Based at LEZL


Pilot ID
Pilot Name
Pilot Rank
No. of Flights
No. of Flying Hours
There are no pilots assigned to this hub!   Will you be the first?
Content